Location: Casteau
(50.5142°N, 4.0161°E)
Time: 23:17:26
(UTC+00:00)

Cosmos 1707 - Pass Details

Date: 18 September 2020
Orbit: 515 x 530 km, 82.5° (Epoch: 31 October)

Event Time Altitude Azimuth Distance (km) Brightness Sun altitude
Rises 19:14:42 0° 347° (NNW) 2,657 6.8 -14.0°
Reaches altitude 10° 19:16:52 10° 345° (NNW) 1,762 5.9 -14.3°
Maximum altitude 19:20:42 67° 263° (W) 564 3.0 -14.8°
Drops below altitude 10° 19:24:29 10° 181° (S) 1,742 5.2 -15.4°
Enters shadow 19:25:41 - 179° (S) 2,237 5.7 -15.6°
